Weather History for Cape Girardeau, MO

Change the Weather History Date:

Tuesday, September 17, 2013

  Actual Average Record
Temperature  
Mean Temperature 74 °F 68 °F  
Max Temperature 84 °F 81 °F 92 °F (1983)
Min Temperature 63 °F 56 °F 39 °F (2000)
Degree Days  
Heating Degree Days 0 1  
Month to date heating degree days 3 7  
Since 1 July heating degree days 4 8  
Cooling Degree Days 9 5  
Month to date cooling degree days 144 119  
Year to date cooling degree days 1325 1379  
Growing Degree Days 22 (Base 50)    
Moisture  
Dew Point 62 °F    
Average Humidity 72    
Maximum Humidity 93    
Minimum Humidity 51    
Precipitation  
Precipitation 0.00 in 0.11 in 2.34 in (1964)
Month to date precipitation T 1.90  
Year to date precipitation 28.23 32.95  
Sea Level Pressure  
Sea Level Pressure 30.15 in    
Wind  
Wind Speed 4 mph (ENE)    
Max Wind Speed 9 mph    
Max Gust Speed 14 mph    
Visibility 10 miles    
Events      
T = Trace of Precipitation, MM = Missing Value Source: NWS Daily Summary

Daily Weather History Graph

Daily Weather History Graph

Search for Another Location

Airport:

Trip Planner

Search our weather history database for the weather conditions in past years. The results will help you decide how hot, cold, wet, or windy it might be!

Date:

Astronomy

Sep. 17, 2013 Rise Set
Actual Time 6:42 AM CDT 7:02 PM CDT
Civil Twilight 6:16 AM CDT 7:28 PM CDT
Nautical Twilight 5:45 AM CDT 7:59 PM CDT
Astronomical Twilight 5:14 AM CDT 8:30 PM CDT
Moon 5:48 PM CDT (9/17) 4:38 AM CDT (9/17)
Length of Visible Light 13h 12m
Length of Day
12h 20m
Waxing Gibbous, 96% of the Moon is Illuminated
Sep 17
Waxing Gibbous
Sep 19
Full
Sep 26
Last Quarter
Oct 4
New
Oct 11
First Quarter

Hourly Weather History & Observations

Time (CDT) Temp. Heat Index Dew Point Humidity Pressure Visibility Wind Dir Wind Speed Gust Speed Precip Events Conditions
12:53 AM 64.9 °F - 59.0 °F 81% 30.20 in 10.0 mi ENE 3.5 mph - N/A   Clear
1:53 AM 64.9 °F - 59.0 °F 81% 30.20 in 10.0 mi ENE 5.8 mph - N/A   Clear
2:53 AM 64.0 °F - 60.1 °F 87% 30.19 in 10.0 mi ENE 4.6 mph - N/A   Scattered Clouds
3:53 AM 63.0 °F - 60.1 °F 90% 30.19 in 9.0 mi NNE 3.5 mph - N/A   Clear
4:53 AM 64.0 °F - 60.1 °F 87% 30.19 in 9.0 mi NE 5.8 mph - N/A   Partly Cloudy
5:53 AM 64.0 °F - 60.1 °F 87% 30.19 in 9.0 mi NE 5.8 mph - N/A   Partly Cloudy
6:53 AM 63.0 °F - 60.1 °F 90% 30.19 in 8.0 mi NE 5.8 mph - N/A   Mostly Cloudy
7:53 AM 64.0 °F - 59.0 °F 84% 30.21 in 9.0 mi ENE 8.1 mph - N/A   Clear
8:53 AM 66.0 °F - 60.1 °F 81% 30.20 in 9.0 mi ENE 5.8 mph - N/A   Partly Cloudy
9:53 AM 70.0 °F - 61.0 °F 73% 30.21 in 10.0 mi Variable 5.8 mph - N/A   Partly Cloudy
10:53 AM 73.9 °F - 62.1 °F 66% 30.20 in 10.0 mi Calm Calm - N/A   Partly Cloudy
11:53 AM 75.9 °F - 63.0 °F 64% 30.18 in 10.0 mi SSE 4.6 mph - N/A   Clear
12:53 PM 78.1 °F - 63.0 °F 60% 30.16 in 10.0 mi SE 4.6 mph - N/A   Clear
1:53 PM 81.0 °F 82.2 °F 63.0 °F 54% 30.13 in 10.0 mi Calm Calm - N/A   Partly Cloudy
2:53 PM 82.0 °F 83.1 °F 63.0 °F 52% 30.11 in 10.0 mi NE 5.8 mph - N/A   Clear
3:53 PM 82.0 °F 83.1 °F 63.0 °F 52% 30.09 in 10.0 mi East 4.6 mph - N/A   Clear
4:53 PM 82.9 °F 84.0 °F 63.0 °F 51% 30.09 in 10.0 mi Variable 4.6 mph - N/A   Partly Cloudy
5:53 PM 81.0 °F 82.5 °F 64.0 °F 56% 30.08 in 10.0 mi Calm Calm - N/A   Mostly Cloudy
6:53 PM 75.9 °F - 64.9 °F 69% 30.08 in 10.0 mi East 4.6 mph - N/A   Mostly Cloudy
7:53 PM 73.0 °F - 64.9 °F 76% 30.08 in 10.0 mi ENE 3.5 mph - N/A   Partly Cloudy
8:53 PM 71.1 °F - 64.9 °F 81% 30.08 in 10.0 mi East 3.5 mph - N/A   Clear
9:53 PM 69.1 °F - 64.0 °F 84% 30.09 in 10.0 mi Calm Calm - N/A   Clear
10:53 PM 68.0 °F - 63.0 °F 84% 30.09 in 10.0 mi ESE 4.6 mph - N/A   Clear
11:53 PM 69.1 °F - 64.0 °F 84% 30.08 in 10.0 mi Calm Calm - N/A   Clear